Lapse_Rate
7.7 7.8 8.1 8.0 7.5 8.0 8.8 9.4 9.8 9.6 9.1 8.9 9.1 9.1 9.5 9.7 9.7 9.5 9.1 9.0 7.9 7.8 7.0 7.5 6.9 7.0 7.0 7.2 7.2 7.0 6.7 6.5
8.2 8.5 7.9 8.2 8.2 8.2 8.8 9.2 9.3 9.6 9.6 9.1 9.0 8.8 9.2 9.7 9.7 9.7 9.4 9.1 8.3 8.0 7.4 7.7 7.5 7.3 7.0 7.0 7.0 7.1 6.9 6.5
9.4 8.4 7.9 8.1 9.0 8.5 8.6 8.7 9.7 9.5 9.7 9.7 9.3 9.2 9.5 9.7 9.4 9.6 9.6 9.2 8.5 7.9 7.7 8.0 7.9 7.3 7.1 6.8 6.8 6.8 7.0 7.0
9.1 9.4 8.9 8.2 8.1 8.2 8.0 8.4 9.2 9.3 9.6 9.3 9.5 9.3 9.4 8.9 9.1 9.4 9.7 9.3 8.9 8.0 8.0 7.4 7.8 7.7 7.4 7.2 7.1 7.2 7.1 7.0
9.0 9.5 9.5 8.6 8.1 8.3 8.8 8.8 8.7 9.2 9.6 9.1 9.2 9.3 9.3 8.7 9.1 9.5 9.3 9.5 9.3 8.4 8.1 7.3 7.6 8.0 7.9 7.5 7.5 7.3 7.1 7.1
9.1 8.2 9.4 9.3 9.3 9.1 9.0 8.4 8.9 9.2 9.2 8.8 8.8 8.9 9.1 8.6 8.5 8.6 8.9 9.3 9.3 8.5 8.1 7.7 7.3 7.6 8.0 8.1 7.7 7.5 7.6 7.5
8.8 9.1 9.6 9.1 8.7 9.1 8.1 8.8 8.6 9.5 9.6 9.0 8.4 8.4 8.8 8.4 8.6 8.9 9.2 9.3 9.5 8.8 8.1 8.2 7.9 7.6 7.5 7.7 7.9 7.8 7.6 7.8
7.6 7.9 8.7 9.2 9.5 8.8 9.4 9.2 9.7 9.4 9.7 9.0 8.9 7.8 8.1 8.0 7.7 7.7 8.1 8.3 8.2 8.1 7.9 7.6 7.5 7.4 7.9 7.9 7.9 7.9 8.2 8.3
6.9 7.1 7.9 9.2 9.2 9.6 9.7 9.6 9.7 9.3 9.4 9.1 9.0 9.0 8.3 7.9 7.4 7.2 7.2 7.5 7.6 7.6 7.8 8.0 7.4 7.4 7.6 8.2 8.1 8.1 8.3 8.5
6.6 7.3 8.1 8.5 8.9 8.9 9.4 9.7 9.7 9.5 9.5 9.8 9.7 9.2 8.5 7.3 7.2 7.1 7.2 7.2 7.2 7.4 7.6 7.9 8.1 8.0 8.0 8.0 8.5 8.4 8.6 8.6
6.9 7.5 7.8 8.0 8.5 8.8 8.8 9.4 9.5 9.8 9.5 9.2 8.9 8.7 8.2 7.2 7.1 7.0 6.9 7.0 7.1 7.3 7.8 8.0 7.9 8.1 8.2 8.3 8.4 8.4 8.5 8.7
6.8 7.3 8.2 8.7 9.1 9.0 8.9 8.7 8.7 8.8 8.8 8.6 8.3 8.2 8.3 7.0 6.8 6.7 6.5 6.4 6.2 6.5 7.0 7.8 8.0 8.0 7.7 7.7 7.8 8.2 8.6 8.7
6.9 6.4 8.1 7.7 8.0 8.6 8.8 7.5 7.7 8.0 8.4 8.4 8.3 8.0 5.9 6.3 7.1 6.9 6.8 6.7 6.8 6.9 6.8 6.9 6.9 7.0 7.2 7.1 7.6 8.5 8.8 8.8
7.4 7.4 7.4 6.5 7.5 7.6 6.9 6.7 6.8 7.1 6.7 6.6 6.3 5.7 5.0 5.5 6.4 6.8 7.1 7.2 6.8 6.9 6.9 7.0 7.0 7.0 7.3 7.5 7.8 8.0 8.2 8.6
7.9 7.4 7.3 7.1 7.0 6.7 6.6 6.6 6.6 6.3 5.6 5.2 4.6 4.3 4.5 5.4 6.7 6.9 7.0 6.7 6.7 6.6 6.7 6.5 6.6 7.0 7.2 7.5 7.7 7.7 7.8 8.1
7.5 6.8 6.9 6.7 6.8 6.6 6.5 5.9 5.0 4.8 4.7 4.4 4.5 4.8 5.5 6.8 6.9 6.7 6.3 6.4 6.4 6.6 6.7 6.5 6.8 7.3 7.3 7.4 7.6 7.6 7.6 7.7
6.0 5.9 6.1 6.0 5.9 5.6 5.2 5.0 4.1 3.5 3.3 4.3 5.0 5.5 5.8 5.8 5.8 6.0 6.3 6.4 6.8 6.9 6.8 6.6 7.2 7.5 7.5 7.5 7.6 7.7 7.7 7.7
5.3 5.6 5.3 4.8 5.2 5.4 4.8 4.3 4.2 4.2 4.8 5.3 5.3 5.8 5.7 5.5 5.6 6.0 6.3 6.4 6.6 6.7 6.7 7.0 7.2 7.3 7.7 7.7 7.7 7.8 7.8 7.8
4.0 4.9 4.7 4.4 4.3 4.5 4.3 4.1 5.0 5.4 5.8 6.0 5.7 5.9 5.9 5.5 5.8 6.2 6.2 6.5 6.5 6.7 6.7 7.0 7.5 7.5 7.5 7.7 7.8 7.8 8.0 8.1
Wind_Speed
33 24 27 23 26 24 20 20 16 19 28 25 24 25 23 16 21 25 25 23 26 26 24 24 23 23 23 23 23 22 22 17
32 28 29 31 22 21 17 21 20 19 21 19 24 23 24 19 17 21 23 22 23 24 24 23 25 23 23 22 24 25 23 20
28 31 28 22 21 24 19 17 15 13 13 13 25 22 19 21 18 17 20 22 21 24 24 25 23 22 23 22 22 21 22 22
27 28 31 28 28 25 13 22 15 14 4 11 5 20 16 15 21 15 16 20 21 23 23 23 24 23 24 22 22 22 20 19
25 23 30 33 30 27 22 18 19 14 7 7 9 7 15 14 14 18 13 14 20 22 21 22 23 23 23 23 23 20 19 19
18 22 18 28 30 28 27 18 16 18 9 8 6 4 9 13 10 11 12 11 17 19 20 19 20 20 20 22 21 21 21 20
23 25 16 27 26 30 31 21 22 18 18 15 12 9 8 7 6 9 10 6 9 14 17 18 18 19 19 19 21 21 20 22
20 22 20 20 31 30 29 29 23 24 18 20 15 14 10 10 9 10 8 6 4 3 2 3 15 16 20 19 19 19 20 22
18 16 20 19 14 26 24 24 24 20 16 18 21 17 14 11 7 5 1 1 1 2 5 6 6 10 14 17 15 17 19 18
11 13 16 12 11 15 13 24 23 18 15 10 10 11 11 8 5 5 4 4 6 8 8 6 11 14 11 12 13 13 12 15
5 7 8 12 15 18 13 10 7 21 17 9 12 9 7 5 4 3 6 8 7 8 9 6 10 12 14 14 14 14 14 13
8 8 11 5 17 4 11 11 12 8 3 1 4 5 9 13 13 12 12 11 10 11 12 8 6 6 12 15 14 14 16 16
9 6 8 16 20 7 9 5 18 21 19 6 3 10 10 10 11 11 10 10 9 9 9 6 6 7 4 10 15 16 16 14
12 15 15 14 9 7 8 12 15 16 18 17 16 16 14 14 13 13 13 12 10 7 7 10 3 3 5 6 6 4 8 14
10 13 12 9 10 9 10 7 10 12 14 13 14 14 15 15 14 14 15 10 10 8 7 9 1 3 6 5 5 5 6 8
13 17 17 15 14 12 13 13 11 10 13 13 13 15 15 14 14 15 18 10 10 11 9 5 3 2 5 5 4 5 5 6
17 19 18 19 16 17 13 15 16 14 14 13 15 15 15 14 11 12 17 15 8 9 8 6 7 6 8 8 4 5 5 6
15 19 18 18 18 19 17 17 16 16 16 14 13 12 13 14 8 10 15 14 9 7 5 3 2 1 5 4 5 3 5 5
23 25 26 25 24 24 22 17 16 15 13 15 12 13 14 17 7 9 13 14 8 7 5 4 5 3 4 4 1 4 3 2
Wind_Direction
229 208 220 194 216 218 227 222 229 224 220 239 224 236 247 232 195 185 187 188 176 173 179 180 185 186 187 185 190 191 194 193
201 221 214 227 198 216 229 243 232 226 229 211 214 220 218 229 229 188 186 178 174 174 176 181 187 186 189 187 190 191 191 196
216 205 207 208 212 209 230 237 241 251 228 222 195 200 209 209 206 206 187 177 175 173 179 184 184 183 189 192 190 195 198 198
248 209 206 211 216 208 221 218 246 271 306 32 218 180 176 225 182 214 201 175 176 173 179 180 181 186 189 191 196 197 197 200
241 242 193 210 208 221 211 233 223 242 234 71 52 88 177 191 193 187 200 194 177 172 178 182 186 188 188 193 198 193 197 200
223 228 219 194 212 207 225 210 226 221 142 136 105 98 164 166 191 192 192 211 175 173 176 184 186 187 191 191 194 196 193 200
245 246 222 194 210 213 215 215 218 218 210 139 134 157 134 107 157 174 138 139 160 179 176 183 183 184 191 194 191 193 198 200
261 270 267 267 198 213 210 222 213 236 215 136 129 132 141 113 80 80 62 110 138 140 323 180 188 179 188 194 193 192 198 204
259 248 253 252 243 207 216 206 222 220 237 146 152 151 154 143 122 96 132 252 318 271 243 204 194 186 181 192 192 193 201 201
280 285 243 243 237 252 254 216 216 224 234 210 118 108 105 111 132 162 220 265 272 263 234 224 211 211 184 175 190 201 198 203
284 244 232 239 223 218 237 232 227 212 227 108 92 89 78 49 3 315 290 291 295 283 269 235 200 210 187 188 184 195 209 209
292 283 220 265 234 179 222 237 310 284 308 278 160 193 78 37 26 10 354 349 350 344 334 254 212 219 166 184 186 198 209 213
238 268 288 25 354 65 206 55 24 32 21 327 328 51 44 21 16 357 340 326 317 314 306 320 350 358 320 190 195 202 207 206
235 239 240 63 320 45 45 44 33 32 30 24 21 10 11 7 3 344 331 314 298 281 287 298 263 333 307 276 245 215 187 196
234 236 277 325 327 355 356 31 29 18 14 7 2 351 345 343 359 334 315 328 312 281 242 256 328 240 256 262 314 231 187 182
284 277 292 305 319 321 331 340 351 348 341 342 341 337 339 335 339 332 328 323 352 346 333 306 135 303 277 271 260 256 225 183
289 287 295 291 290 302 309 310 310 312 309 316 323 325 325 319 321 322 317 324 344 331 337 43 36 22 13 5 313 206 217 188
286 299 307 299 296 297 290 281 282 281 281 287 298 310 302 299 312 322 304 310 318 297 299 333 323 340 2 344 337 287 181 183
284 288 287 285 286 291 296 288 289 284 285 283 293 302 302 295 319 309 295 292 307 316 348 36 45 333 270 260 237 24 55 18